Location: Hermaringen
(48.5952°N, 10.2585°E)
Time: 04:59:09
(UTC+00:00)

Transit 2A - Pass Details

Date: 16 February 2026
Orbit: 590 x 954 km, 66.7° (Epoch: 14 March)

Event Time Altitude Azimuth Distance (km) Brightness Sun altitude
Rises 17:56:59 0° 318° (NW) 3,635 10.1 -13.0°
Reaches altitude 10° 18:00:34 10° 337° (NNW) 2,667 9.0 -13.6°
Maximum altitude 18:04:37 18° 18° (NNE) 2,130 8.1 -14.3°
Enters shadow 18:07:27 13° 50° (NE) 2,358 8.1 -14.7°
